CAPE
0 0 0 0 0 0 0 0 0 0 0 0 0 0 0 0 0 0 0 0 0 0 0 0 0 0 0 0 0 0 0 0 0 0 0 0 0 0 3 3 8 11 9 12 41 112 450 117 115
0 0 0 0 0 0 0 0 0 0 0 0 0 0 0 0 0 0 0 0 0 0 0 0 0 0 0 0 0 0 0 0 0 0 0 0 0 0 0 1 4 7 4 11 10 4 100 137 139
0 0 0 0 0 0 0 0 0 0 0 0 0 0 0 0 0 0 0 0 0 0 0 0 0 0 0 0 0 0 0 0 0 0 0 0 0 0 0 0 0 0 3 6 10 8 9 49 72
0 0 0 0 0 0 0 0 0 0 0 0 0 0 0 0 0 0 0 0 0 0 0 0 0 0 0 0 0 0 0 0 0 0 0 0 0 0 0 0 0 0 0 4 7 9 12 7 72
0 0 0 0 0 0 0 0 0 0 0 0 0 0 0 0 0 0 0 0 0 0 0 0 0 0 0 0 0 0 0 0 0 0 0 0 0 0 0 0 0 0 0 0 6 5 13 8 4
0 0 0 0 0 0 0 0 0 0 0 0 0 0 0 0 0 0 0 0 0 0 0 0 0 0 0 0 0 0 0 0 0 0 0 0 0 0 0 0 0 0 0 0 1 3 7 6 11
0 0 0 0 0 0 0 0 0 0 0 0 0 0 0 0 0 0 0 0 0 0 0 0 0 0 0 0 0 0 0 0 0 0 0 0 0 0 0 0 0 0 0 0 0 0 2 5 8
0 0 0 0 0 0 0 0 0 0 0 0 0 0 0 0 0 0 0 0 0 0 0 0 0 0 0 0 0 0 0 0 0 0 0 0 0 0 0 0 0 0 0 0 0 0 4 0 5
0 0 0 0 0 0 0 0 0 0 0 0 0 0 0 0 0 0 0 0 0 0 0 0 0 0 0 0 0 0 0 0 0 0 0 0 0 0 0 0 0 0 0 0 0 0 2 0 0
0 0 0 0 0 0 0 0 0 0 0 0 0 0 0 0 0 0 0 0 0 0 0 0 0 0 0 0 0 0 0 0 0 0 0 0 0 0 0 0 0 0 0 0 0 0 0 0 0
0 0 0 0 0 0 0 0 0 0 0 0 0 0 0 0 0 0 0 0 0 0 0 0 0 0 0 0 0 0 0 0 0 0 0 0 0 0 0 0 0 0 0 0 0 0 0 0 0
0 0 0 0 0 0 0 0 0 0 0 0 0 0 0 0 0 0 0 0 0 0 0 0 0 0 0 0 0 0 0 0 0 0 0 0 0 0 0 0 0 0 0 0 0 0 0 0 0
0 0 0 0 0 0 0 0 0 0 0 0 0 0 0 0 0 0 0 0 0 0 0 0 0 0 0 0 0 0 0 0 0 0 0 0 0 0 0 0 0 0 0 0 0 0 0 0 0
0 0 0 0 0 0 0 0 0 0 0 0 0 0 0 0 0 0 0 0 0 0 0 0 0 0 0 0 0 0 0 0 0 0 0 0 0 0 0 0 0 0 0 0 0 0 0 0 0
0 0 0 0 0 0 0 0 0 0 0 0 0 0 0 0 0 0 0 0 0 0 0 0 0 0 0 0 0 0 0 0 0 0 0 0 0 0 0 0 0 0 0 0 0 0 0 0 0
0 0 0 0 0 0 0 0 0 0 0 0 0 0 0 0 0 0 0 0 0 0 0 0 0 0 0 0 0 0 0 0 0 0 0 0 0 0 0 0 0 0 0 0 0 0 0 0 0
0 0 0 0 0 0 0 0 0 0 0 0 0 0 0 0 0 0 0 0 0 0 0 0 0 0 0 0 0 0 0 0 0 0 0 0 0 0 0 0 0 0 0 0 0 0 0 0 0
0 0 0 0 0 0 0 0 0 0 0 0 0 0 0 0 0 0 0 0 0 0 0 0 0 0 0 0 0 0 0 0 0 0 0 0 0 0 0 0 0 0 0 0 0 0 0 0 0
0 0 0 0 0 0 0 0 0 0 0 0 0 0 0 0 0 0 0 0 0 0 0 0 0 0 0 0 0 0 0 0 0 0 0 0 0 0 0 0 0 0 0 0 0 0 0 0 0
0 0 0 0 0 0 0 0 0 0 0 0 0 0 0 0 0 0 0 0 0 0 0 0 0 0 0 0 0 0 0 0 0 0 0 0 0 0 0 0 0 0 0 0 0 0 0 0 0
0 0 0 0 0 0 0 0 0 0 0 0 0 0 0 0 0 0 0 0 0 0 0 0 0 0 0 0 0 0 0 0 0 0 0 0 0 0 0 0 0 0 0 0 0 0 0 0 0
0 0 0 0 0 0 0 0 0 0 0 0 0 0 0 0 0 0 0 0 0 0 0 0 0 0 0 0 0 0 0 0 0 0 0 0 0 0 0 0 0 0 0 0 0 0 0 0 0
0 0 0 0 0 0 0 0 0 0 0 0 0 0 0 0 0 0 0 0 0 0 0 0 0 0 0 0 0 0 0 0 0 0 0 0 0 0 0 0 0 0 0 0 0 0 0 0 0
0 0 0 0 0 0 0 0 0 0 0 0 0 0 0 0 0 0 0 0 0 0 0 0 0 0 0 0 0 0 0 0 0 0 0 0 0 0 0 0 0 0 0 0 0 0 0 0 0
0 0 0 0 0 0 0 0 0 0 0 0 0 0 0 0 0 0 0 0 0 0 0 0 0 0 0 0 0 0 0 0 0 0 0 0 0 0 0 0 0 0 0 0 0 0 0 0 0
0 0 0 0 0 0 0 0 0 0 0 0 0 0 0 0 0 0 0 0 0 0 0 0 0 0 0 0 0 0 0 0 0 0 0 0 0 0 0 0 0 0 0 0 0 0 0 0 0
0 0 0 0 0 0 0 0 0 0 0 0 0 0 0 0 0 0 0 0 0 0 0 0 0 0 0 0 0 0 0 0 0 0 0 0 0 0 0 0 0 0 0 0 0 0 0 0 0
0 0 0 0 0 0 0 0 0 0 0 0 0 0 0 0 0 0 0 0 0 0 0 0 0 0 0 0 0 0 0 0 0 0 0 0 0 0 0 0 0 0 0 0 0 0 0 0 0
0 0 0 0 0 0 0 0 0 0 0 0 0 0 0 0 0 0 0 0 0 0 0 0 0 0 0 0 0 0 0 0 0 0 0 0 0 0 0 0 0 0 0 0 0 0 0 0 0
0 0 0 0 0 0 0 0 0 0 0 0 0 0 0 0 0 0 0 0 0 0 0 0 0 0 0 0 0 0 0 0 0 0 0 0 0 0 0 0 0 0 0 0 0 0 0 0 0
CIN
0 0 0 0 0 0 0 0 0 0 0 0 0 0 0 0 0 0 0 0 0 0 0 0 0 0 0 0 0 0 0 0 0 0 0 0 0 0 -1 0 0 0 0 0 -41 -34 -1 -13 -23
0 0 0 0 0 0 0 0 0 0 0 0 0 0 0 0 0 0 0 0 0 0 0 0 0 0 0 0 0 0 0 0 0 0 0 0 0 0 0 0 0 0 0 0 -1 0 -35 -4 -16
0 0 0 0 0 0 0 0 0 0 0 0 0 0 0 0 0 0 0 0 0 0 0 0 0 0 0 0 0 0 0 0 0 0 0 0 0 0 0 0 0 0 0 0 0 0 0 -10 -6
0 0 0 0 0 0 0 0 0 0 0 0 0 0 0 0 0 0 0 0 0 0 0 0 0 0 0 0 0 0 0 0 0 0 0 0 0 0 0 0 0 0 0 0 0 0 0 0 -2
0 0 0 0 0 0 0 0 0 0 0 0 0 0 0 0 0 0 0 0 0 0 0 0 0 0 0 0 0 0 0 0 0 0 0 0 0 0 0 0 0 0 0 0 0 0 0 0 -42
0 0 0 0 0 0 0 0 0 0 0 0 0 0 0 0 0 0 0 0 0 0 0 0 0 0 0 0 0 0 0 0 0 0 0 0 0 0 0 0 0 0 0 0 0 0 0 0 0
0 0 0 0 0 0 0 0 0 0 0 0 0 0 0 0 0 0 0 0 0 0 0 0 0 0 0 0 0 0 0 0 0 0 0 0 0 0 0 0 0 0 0 0 0 0 0 0 0
0 0 0 0 0 0 0 0 0 0 0 0 0 0 0 0 0 0 0 0 0 0 0 0 0 0 0 0 0 0 0 0 0 0 0 0 0 0 0 0 0 0 0 0 0 0 0 0 0
0 0 0 0 0 0 0 0 0 0 0 0 0 0 0 0 0 0 0 0 0 0 0 0 0 0 0 0 0 0 0 0 0 0 0 0 0 0 0 0 0 0 0 0 0 0 0 0 0
0 0 0 0 0 0 0 0 0 0 0 0 0 0 0 0 0 0 0 0 0 0 0 0 0 0 0 0 0 0 0 0 0 0 0 0 0 0 0 0 0 0 0 0 0 0 0 0 0
0 0 0 0 0 0 0 0 0 0 0 0 0 0 0 0 0 0 0 0 0 0 0 0 0 0 0 0 0 0 0 0 0 0 0 0 0 0 0 0 0 0 0 0 0 0 0 0 0
0 0 0 0 0 0 0 0 0 0 0 0 0 0 0 0 0 0 0 0 0 0 0 0 0 0 0 0 0 0 0 0 0 0 0 0 0 0 0 0 0 0 0 0 0 0 0 0 0
0 0 0 0 0 0 0 0 0 0 0 0 0 0 0 0 0 0 0 0 0 0 0 0 0 0 0 0 0 0 0 0 0 0 0 0 0 0 0 0 0 0 0 0 0 0 0 0 0
0 0 0 0 0 0 0 0 0 0 0 0 0 0 0 0 0 0 0 0 0 0 0 0 0 0 0 0 0 0 0 0 0 0 0 0 0 0 0 0 0 0 0 0 0 0 0 0 0
0 0 0 0 0 0 0 0 0 0 0 0 0 0 0 0 0 0 0 0 0 0 0 0 0 0 0 0 0 0 0 0 0 0 0 0 0 0 0 0 0 0 0 0 0 0 0 0 0
0 0 0 0 0 0 0 0 0 0 0 0 0 0 0 0 0 0 0 0 0 0 0 0 0 0 0 0 0 0 0 0 0 0 0 0 0 0 0 0 0 0 0 0 0 0 0 0 0
0 0 0 0 0 0 0 0 0 0 0 0 0 0 0 0 0 0 0 0 0 0 0 0 0 0 0 0 0 0 0 0 0 0 0 0 0 0 0 0 0 0 0 0 0 0 0 0 0
0 0 0 0 0 0 0 0 0 0 0 0 0 0 0 0 0 0 0 0 0 0 0 0 0 0 0 0 0 0 0 0 0 0 0 0 0 0 0 0 0 0 0 0 0 0 0 0 0
0 0 0 0 0 0 0 0 0 0 0 0 0 0 0 0 0 0 0 0 0 0 0 0 0 0 0 0 0 0 0 0 0 0 0 0 0 0 0 0 0 0 0 0 0 0 0 0 0
0 0 0 0 0 0 0 0 0 0 0 0 0 0 0 0 0 0 0 0 0 0 0 0 0 0 0 0 0 0 0 0 0 0 0 0 0 0 0 0 0 0 0 0 0 0 0 0 0
0 0 0 0 0 0 0 0 0 0 0 0 0 0 0 0 0 0 0 0 0 0 0 0 0 0 0 0 0 0 0 0 0 0 0 0 0 0 0 0 0 0 0 0 0 0 0 0 0
0 0 0 0 0 0 0 0 0 0 0 0 0 0 0 0 0 0 0 0 0 0 0 0 0 0 0 0 0 0 0 0 0 0 0 0 0 0 0 0 0 0 0 0 0 0 0 0 0
0 0 0 0 0 0 0 0 0 0 0 0 0 0 0 0 0 0 0 0 0 0 0 0 0 0 0 0 0 0 0 0 0 0 0 0 0 0 0 0 0 0 0 0 0 0 0 0 0
0 0 0 0 0 0 0 0 0 0 0 0 0 0 0 0 0 0 0 0 0 0 0 0 0 0 0 0 0 0 0 0 0 0 0 0 0 0 0 0 0 0 0 0 0 0 0 0 0
0 0 0 0 0 0 0 0 0 0 0 0 0 0 0 0 0 0 0 0 0 0 0 0 0 0 0 0 0 0 0 0 0 0 0 0 0 0 0 0 0 0 0 0 0 0 0 0 0
0 0 0 0 0 0 0 0 0 0 0 0 0 0 0 0 0 0 0 0 0 0 0 0 0 0 0 0 0 0 0 0 0 0 0 0 0 0 0 0 0 0 0 0 0 0 0 0 0
0 0 0 0 0 0 0 0 0 0 0 0 0 0 0 0 0 0 0 0 0 0 0 0 0 0 0 0 0 0 0 0 0 0 0 0 0 0 0 0 0 0 0 0 0 0 0 0 0
0 0 0 0 0 0 0 0 0 0 0 0 0 0 0 0 0 0 0 0 0 0 0 0 0 0 0 0 0 0 0 0 0 0 0 0 0 0 0 0 0 0 0 0 0 0 0 0 0
0 0 0 0 0 0 0 0 0 0 0 0 0 0 0 0 0 0 0 0 0 0 0 0 0 0 0 0 0 0 0 0 0 0 0 0 0 0 0 0 0 0 0 0 0 0 0 0 0
0 0 0 0 0 0 0 0 0 0 0 0 0 0 0 0 0 0 0 0 0 0 0 0 0 0 0 0 0 0 0 0 0 0 0 0 0 0 0 0 0 0 0 0 0 0 0 0 0
Wind_Speed
13 14 17 13 15 17 15 14 15 16 16 17 18 18 17 18 17 18 15 15 16 19 23 25 27 28 29 29 30 31 32 32 32 33 33 32 33 32 32 31 30 30 29 29 28 27 25 16 12
14 17 15 15 16 16 14 13 13 15 16 17 17 18 17 16 16 15 15 14 16 19 22 24 25 26 27 28 29 30 31 32 33 33 33 34 33 33 33 32 31 31 30 30 29 28 27 22 12
6 14 15 16 16 14 14 12 13 15 16 16 17 18 16 15 16 15 15 15 16 19 21 22 23 24 26 27 29 30 31 32 33 33 34 35 35 35 34 33 31 31 31 31 31 29 28 29 15
13 15 17 16 16 15 14 12 13 14 15 16 17 16 16 14 14 13 14 15 16 18 20 21 22 23 25 27 28 29 30 31 32 33 34 35 36 35 35 34 33 32 32 32 32 31 29 28 13
14 15 16 16 16 14 14 13 13 13 15 16 15 15 14 15 16 15 14 14 15 17 18 19 20 23 24 26 27 29 30 31 32 34 34 36 37 37 36 35 34 33 33 33 33 32 30 28 24
14 15 16 15 14 13 12 12 13 13 14 15 16 15 15 14 14 14 14 14 15 16 17 18 19 21 23 25 27 28 30 31 32 34 35 36 37 37 37 37 36 34 34 34 34 34 32 30 27
13 15 14 13 12 14 11 11 12 13 13 14 14 17 17 12 12 14 14 14 14 15 15 16 17 20 22 25 27 28 29 31 32 34 35 36 38 38 38 38 36 36 34 34 35 35 35 33 33
14 14 13 12 11 14 11 12 14 13 13 15 14 17 18 11 10 13 14 14 14 14 14 15 16 18 21 23 26 27 29 30 32 33 35 36 37 39 39 38 37 37 35 35 35 36 36 35 35
14 15 12 11 11 14 11 13 14 15 14 13 13 16 17 15 13 13 13 14 15 14 14 14 14 16 19 21 24 26 28 29 31 33 34 36 36 37 37 39 37 38 37 36 36 36 38 35 36
16 15 13 13 14 14 12 14 14 15 14 13 13 16 14 13 13 13 12 13 13 14 13 13 13 15 18 21 24 26 27 28 30 33 34 35 35 36 37 39 38 38 37 37 36 37 37 35 37
17 15 12 14 14 15 14 16 17 16 16 10 10 9 10 12 12 12 13 14 14 14 15 13 13 14 16 19 22 24 26 28 29 33 34 34 35 37 37 39 37 38 38 37 37 37 36 38 38
15 14 14 13 16 16 17 18 19 13 16 16 10 9 9 10 10 12 13 15 17 15 14 14 13 14 14 18 20 23 25 26 28 31 33 35 36 37 38 39 40 38 38 39 38 39 38 39 40
15 13 15 15 17 18 18 20 20 16 10 13 10 10 9 9 10 12 14 15 18 17 14 14 15 14 14 16 19 21 22 23 23 24 26 30 33 35 38 40 40 36 38 38 41 41 39 39 40
14 14 15 17 18 21 23 23 22 17 15 9 9 8 8 9 10 14 16 16 17 19 17 18 17 16 16 16 18 20 21 21 22 23 24 26 28 31 37 39 39 36 35 36 40 39 39 39 39
14 16 17 18 23 21 26 21 15 16 16 8 5 5 6 7 10 12 16 17 18 20 21 19 19 19 17 17 18 20 20 21 22 22 23 25 27 31 35 36 36 35 33 32 37 37 36 37 38
19 18 22 21 24 22 25 22 16 18 17 15 6 3 4 6 8 10 15 16 17 19 22 23 21 22 21 20 20 21 22 22 22 23 24 25 26 30 33 36 35 34 29 28 33 34 35 36 37
22 21 24 25 24 27 24 28 16 21 15 11 6 3 3 5 8 9 13 15 17 20 23 24 24 23 24 24 23 24 23 24 23 23 23 23 26 28 31 35 33 31 26 27 31 34 33 36 36
23 23 26 26 27 28 32 26 31 25 14 7 5 4 4 6 6 9 12 14 18 21 23 24 25 25 26 26 25 25 25 24 23 23 23 23 26 29 31 34 32 30 27 26 30 33 33 33 36
21 23 26 26 23 32 26 34 30 23 19 9 3 7 5 6 9 9 12 15 19 22 25 26 27 27 27 28 29 29 29 28 27 26 25 26 28 29 32 32 31 30 29 24 27 32 33 33 35
24 25 26 28 25 32 28 30 17 20 19 15 7 4 5 8 10 12 13 16 20 25 28 30 29 27 27 27 27 29 29 29 29 27 27 28 29 30 31 31 31 30 29 26 25 31 32 32 29
26 24 27 31 35 23 28 18 16 17 18 17 11 9 9 10 11 14 16 20 25 30 35 36 33 30 28 26 27 30 31 30 31 31 31 31 30 31 31 31 32 33 31 29 26 31 31 33 32
30 23 29 32 32 24 24 20 15 17 17 14 13 12 13 14 13 15 18 25 29 34 35 36 35 33 30 28 29 31 34 36 34 33 33 33 33 32 30 32 34 36 35 31 29 29 31 32 36
24 29 29 27 24 24 20 19 16 14 14 11 12 14 15 16 16 18 22 27 32 35 35 38 38 36 31 29 28 31 36 35 35 34 35 34 34 31 30 31 35 35 35 34 29 31 33 32 34
28 28 26 23 22 21 20 21 20 15 13 10 13 16 16 17 19 22 25 31 34 33 35 40 40 38 33 29 31 33 36 36 36 37 38 36 34 32 30 31 33 34 34 35 33 33 33 34 34
32 30 29 24 25 22 20 24 20 16 14 8 12 15 18 21 24 27 31 33 33 34 36 41 41 40 36 32 32 34 35 35 35 37 37 37 34 32 33 31 32 34 35 35 35 32 32 33 34
28 25 24 27 26 26 24 22 21 16 10 10 12 16 18 23 26 29 31 32 32 34 37 40 41 41 38 34 34 35 35 35 35 36 35 34 32 31 32 32 30 32 35 34 35 33 34 32 34
25 25 21 22 23 26 20 21 19 14 11 11 13 17 22 27 29 30 31 32 33 35 38 40 42 42 39 35 36 38 37 36 37 35 33 32 30 30 31 31 31 32 36 35 35 34 35 35 34
24 20 23 23 28 30 25 26 23 12 11 10 17 20 24 28 32 33 33 33 34 37 39 39 41 41 37 36 37 38 37 37 36 35 34 32 30 31 32 33 34 33 35 34 34 33 33 36 37
24 22 20 23 24 28 34 27 19 17 12 14 15 25 28 33 35 36 35 34 36 38 39 39 41 40 38 37 39 39 39 38 36 35 33 31 30 32 32 33 36 35 35 35 35 33 32 37 37
18 18 20 30 29 25 30 35 24 21 18 12 18 26 31 33 36 36 36 38 39 40 41 39 41 40 38 40 40 40 40 37 36 35 33 31 30 32 33 34 37 37 35 35 36 34 32 35 38
Wind_Direction
235 230 80 5 8 4 29 44 4 25 25 34 35 44 43 45 44 30 52 42 35 20 9 5 2 2 0 359 0 360 359 358 354 352 350 347 345 341 329 317 307 304 308 307 306 303 293 295 289
228 132 23 8 1 359 18 33 38 36 30 34 39 38 43 48 51 47 40 45 33 19 13 11 8 6 4 359 359 360 1 359 354 354 353 349 347 344 335 324 309 301 301 302 301 299 301 288 280
87 19 9 0 2 14 18 35 33 31 17 29 32 34 49 46 45 51 40 48 33 20 16 17 15 11 5 360 358 358 359 358 354 352 352 351 350 347 338 328 313 302 296 297 297 295 299 295 265
23 7 4 354 3 14 18 35 35 32 23 33 34 41 42 50 51 51 52 47 35 25 22 19 17 13 6 0 359 358 357 357 354 350 349 352 352 345 347 334 317 304 297 291 292 289 295 298 281
350 1 350 348 356 15 18 28 33 35 24 27 38 41 43 44 34 47 52 47 38 31 28 24 22 13 6 0 357 357 357 355 352 347 347 348 348 344 345 343 326 308 300 293 287 286 289 285 284
349 358 346 358 4 13 26 28 29 29 27 30 28 31 33 42 51 51 46 43 38 33 31 28 23 16 9 3 358 356 355 352 349 344 341 344 345 343 342 343 334 314 300 294 287 283 283 282 282
344 348 355 8 19 7 28 35 29 30 30 28 34 14 15 53 53 46 44 40 36 36 34 33 29 19 10 2 358 355 352 349 346 343 340 341 343 343 342 339 338 322 304 296 290 281 278 280 275
343 346 2 12 18 2 29 27 16 23 22 30 35 13 9 45 67 50 43 37 36 34 30 30 28 22 13 3 358 355 352 350 345 343 341 339 343 342 340 339 339 325 308 300 292 284 275 277 274
345 338 357 5 9 359 19 9 6 15 17 25 28 12 9 34 54 49 45 36 28 26 26 25 25 21 13 7 1 358 353 351 348 345 341 340 343 343 343 339 340 327 310 300 295 288 275 275 274
334 337 346 351 348 353 7 356 4 4 8 13 14 7 26 43 42 47 46 36 35 27 25 22 21 18 13 6 1 356 354 351 348 344 342 341 342 342 341 338 337 326 313 302 296 289 281 272 271
333 337 352 347 344 345 353 348 347 356 359 11 21 34 41 45 40 40 38 30 35 32 24 22 19 17 13 7 4 360 354 352 349 342 342 341 341 339 338 337 339 322 311 307 298 291 279 269 267
338 347 348 350 340 338 340 341 341 357 356 359 27 49 45 57 50 35 38 27 21 27 28 23 17 13 11 6 3 360 355 355 352 348 344 341 340 338 336 335 333 325 312 303 302 291 282 270 264
344 350 347 347 339 335 336 335 336 345 2 3 27 33 40 53 49 40 31 31 19 17 24 20 14 9 7 3 0 358 357 357 358 358 356 352 346 341 336 334 331 334 314 310 297 289 278 269 261
352 353 348 345 342 333 329 329 330 347 1 19 19 24 31 46 47 29 29 32 28 17 17 13 11 6 5 359 357 354 354 355 355 356 356 355 353 348 341 336 334 335 321 317 299 287 274 266 260
355 339 340 337 333 334 324 329 345 352 355 9 1 18 32 46 41 29 20 25 24 15 12 14 11 6 3 357 353 351 349 350 349 350 352 351 350 347 344 340 337 335 327 322 304 285 272 265 257
338 337 324 332 328 330 324 331 344 346 346 346 6 41 47 43 38 32 15 20 22 17 8 6 10 6 3 360 355 350 345 343 344 344 345 346 347 346 343 341 338 336 335 328 309 282 270 263 257
336 333 322 322 329 319 327 319 345 339 343 344 358 14 32 30 17 26 16 14 15 10 2 360 1 0 359 358 355 350 346 341 340 340 340 342 343 343 342 340 339 338 338 327 314 280 269 262 258
336 333 323 321 320 317 307 288 294 332 351 349 351 359 355 358 10 15 11 10 4 1 358 355 352 352 351 353 352 350 347 344 342 340 339 340 340 340 340 339 336 335 333 324 315 281 271 262 252
349 340 327 328 330 315 326 296 306 337 352 8 351 340 345 356 7 8 7 5 0 358 354 351 348 348 348 349 350 349 348 348 346 343 340 338 337 337 336 336 334 331 328 324 316 286 271 260 257
345 337 332 318 334 319 326 313 340 344 351 358 9 10 354 355 357 359 2 2 357 353 351 349 347 346 345 346 349 349 348 348 346 344 341 337 335 334 334 333 330 327 322 319 312 289 272 263 258
339 340 333 323 312 335 326 338 344 350 354 1 13 5 352 346 349 353 356 357 354 350 346 345 344 342 343 344 345 345 345 345 344 343 340 338 335 332 331 329 323 317 314 309 303 286 274 259 259
332 342 331 322 320 328 335 333 341 347 352 2 6 3 354 351 350 351 353 350 349 347 346 345 344 343 343 344 343 342 342 340 340 340 339 337 334 332 329 324 315 303 300 300 295 288 272 264 253
340 334 330 332 331 331 337 337 344 350 350 0 6 3 359 358 357 352 349 347 346 346 347 345 343 343 343 343 342 341 340 339 339 338 337 336 334 332 329 324 311 302 293 291 292 279 269 265 257
339 337 335 334 334 333 339 339 339 342 343 354 2 4 6 3 357 350 346 344 345 347 347 345 344 343 344 344 341 339 339 339 338 337 335 334 333 331 327 322 312 303 294 287 286 278 272 262 261
343 337 330 331 330 333 341 334 337 350 353 7 5 8 5 359 352 346 342 343 343 343 343 344 344 342 343 342 340 339 340 339 337 337 335 334 332 330 324 320 313 303 293 287 282 280 270 264 260
347 351 343 332 332 331 335 334 346 353 15 14 11 3 359 353 348 345 344 344 344 344 343 343 343 343 344 342 340 340 340 339 337 336 336 334 332 328 324 318 314 303 292 286 281 278 267 265 259
349 345 351 339 338 334 340 339 341 360 1 358 351 351 349 347 345 344 344 343 343 342 342 342 342 342 343 343 341 340 340 339 337 337 336 334 332 328 324 317 310 301 288 284 279 277 267 261 259
348 355 345 346 336 332 335 329 331 335 326 334 341 341 343 343 341 341 341 341 340 340 340 341 341 341 343 343 342 341 340 339 338 338 337 335 332 327 321 314 304 298 287 282 278 277 271 260 257
343 346 349 344 337 330 328 330 347 333 308 303 321 338 337 336 336 336 337 338 337 337 337 338 339 340 342 342 340 340 340 340 340 339 338 336 333 326 321 313 298 292 284 281 276 276 273 259 256
350 348 342 333 330 327 323 318 331 330 324 306 319 330 332 332 333 334 335 334 334 333 335 336 337 339 341 340 340 340 340 341 340 340 339 337 333 324 318 310 292 283 281 280 273 274 274 262 255